TimeCST,TemperatureF,Dew PointF,Humidity,Sea Level PressureIn,VisibilityMPH,Wind Direction,Wind SpeedMPH,Gust SpeedMPH,PrecipitationIn,Events,Conditions,WindDirDegrees,DateUTC
12:14 AM,35.6,32.0,87,29.73,2.0,SSE,10.4,-,N/A,,Overcast,150,2013-01-11 06:14:00
12:34 AM,35.6,32.0,87,29.71,1.8,SE,10.4,-,N/A,,Overcast,140,2013-01-11 06:34:00
12:54 AM,35.6,32.0,87,29.69,1.8,SE,9.2,-,N/A,,Overcast,140,2013-01-11 06:54:00
1:14 AM,35.6,32.0,87,29.69,2.0,SSE,9.2,-,N/A,,Overcast,150,2013-01-11 07:14:00
1:34 AM,35.6,32.0,87,29.68,4.0,SSE,9.2,-,N/A,,Overcast,150,2013-01-11 07:34:00
1:55 AM,35.6,32.0,87,29.68,5.0,SSE,6.9,-,N/A,,Overcast,150,2013-01-11 07:55:00
2:14 AM,35.6,32.0,87,29.68,4.0,SE,8.1,-,N/A,,Overcast,140,2013-01-11 08:14:00
2:34 AM,35.6,32.0,87,29.68,5.0,SE,10.4,-,N/A,,Overcast,140,2013-01-11 08:34:00
2:54 AM,35.6,32.0,87,29.67,4.0,SE,10.4,-,N/A,,Overcast,140,2013-01-11 08:54:00
3:14 AM,35.6,32.0,87,29.65,1.8,SE,10.4,-,N/A,,Overcast,140,2013-01-11 09:14:00
3:34 AM,35.6,32.0,87,29.65,2.5,SSE,9.2,-,N/A,,Overcast,150,2013-01-11 09:34:00
3:54 AM,35.6,32.0,87,29.64,1.5,SSE,10.4,-,N/A,,Overcast,150,2013-01-11 09:54:00
4:14 AM,35.6,32.0,87,29.63,1.2,SSE,10.4,-,N/A,,Overcast,150,2013-01-11 10:14:00
4:34 AM,35.6,32.0,87,29.62,1.5,SE,9.2,-,N/A,,Overcast,140,2013-01-11 10:34:00
4:55 AM,35.6,32.0,87,29.61,1.5,SSE,6.9,-,N/A,,Overcast,150,2013-01-11 10:55:00
5:14 AM,35.6,33.8,93,29.60,1.8,SSE,8.1,-,N/A,,Overcast,150,2013-01-11 11:14:00
5:34 AM,35.6,33.8,93,29.61,1.5,SSE,6.9,-,N/A,,Overcast,160,2013-01-11 11:34:00
6:14 AM,35.6,33.8,93,29.59,1.8,SE,6.9,-,N/A,,Overcast,140,2013-01-11 12:14:00
6:34 AM,35.6,33.8,93,29.59,2.0,SSE,4.6,-,N/A,,Overcast,150,2013-01-11 12:34:00
6:54 AM,35.6,33.8,93,29.59,3.0,SE,5.8,-,N/A,,Overcast,130,2013-01-11 12:54:00
7:14 AM,35.6,33.8,93,29.58,3.0,SSE,4.6,-,N/A,,Overcast,160,2013-01-11 13:14:00
7:34 AM,35.6,33.8,93,29.59,3.0,South,5.8,-,N/A,,Overcast,180,2013-01-11 13:34:00
7:54 AM,39.2,35.6,87,29.59,3.0,South,9.2,-,N/A,,Overcast,170,2013-01-11 13:54:00
8:14 AM,39.2,35.6,87,29.58,3.0,SSE,11.5,-,N/A,,Overcast,160,2013-01-11 14:14:00
8:34 AM,39.2,35.6,87,29.58,3.0,South,6.9,-,N/A,,Overcast,170,2013-01-11 14:34:00
8:54 AM,39.2,35.6,87,29.58,3.0,South,9.2,-,N/A,,Overcast,170,2013-01-11 14:54:00
9:14 AM,39.2,35.6,87,29.58,4.0,SSE,10.4,-,N/A,,Overcast,160,2013-01-11 15:14:00
9:34 AM,39.2,35.6,87,29.56,4.0,SSE,8.1,-,N/A,,Overcast,160,2013-01-11 15:34:00
9:55 AM,39.2,35.6,87,29.56,5.0,South,11.5,-,N/A,,Overcast,170,2013-01-11 15:55:00
10:14 AM,39.2,35.6,87,29.56,7.0,South,15.0,-,N/A,,Overcast,170,2013-01-11 16:14:00
10:34 AM,39.2,35.6,87,29.56,7.0,South,11.5,17.3,N/A,,Overcast,170,2013-01-11 16:34:00
10:54 AM,39.2,35.6,87,29.56,7.0,South,16.1,-,N/A,,Overcast,170,2013-01-11 16:54:00
11:14 AM,39.2,35.6,87,29.56,5.0,South,13.8,-,N/A,,Overcast,170,2013-01-11 17:14:00
11:34 AM,39.2,35.6,87,29.54,2.5,South,17.3,-,N/A,,Overcast,170,2013-01-11 17:34:00
11:54 AM,39.2,35.6,87,29.53,0.8,South,11.5,-,N/A,,Overcast,170,2013-01-11 17:54:00
12:14 PM,39.2,35.6,87,29.49,0.8,SSE,12.7,-,N/A,,Overcast,160,2013-01-11 18:14:00
12:35 PM,39.2,35.6,87,29.50,0.8,South,11.5,-,N/A,,Overcast,170,2013-01-11 18:35:00
12:54 PM,39.2,35.6,87,29.49,1.0,SSE,10.4,-,N/A,,Overcast,160,2013-01-11 18:54:00
1:15 PM,39.2,35.6,87,29.48,0.8,SSE,8.1,-,N/A,,Overcast,160,2013-01-11 19:15:00
1:34 PM,39.2,35.6,87,29.47,1.0,SE,10.4,-,N/A,,Overcast,140,2013-01-11 19:34:00
2:14 PM,39.2,35.6,87,29.46,0.5,SE,8.1,-,N/A,Fog,Fog,130,2013-01-11 20:14:00
2:35 PM,39.2,35.6,87,29.47,0.5,SE,8.1,-,N/A,Fog,Fog,130,2013-01-11 20:35:00
2:55 PM,39.2,35.6,87,29.47,0.5,SE,11.5,-,N/A,Fog,Fog,130,2013-01-11 20:55:00
3:14 PM,39.2,35.6,87,29.46,0.8,SE,10.4,-,N/A,,Overcast,130,2013-01-11 21:14:00
3:34 PM,39.2,35.6,87,29.46,0.8,SE,11.5,-,N/A,,Overcast,140,2013-01-11 21:34:00
3:55 PM,39.2,35.6,87,29.45,0.8,SE,9.2,-,N/A,,Overcast,130,2013-01-11 21:55:00
4:14 PM,39.2,35.6,87,29.44,0.5,SE,10.4,-,N/A,Fog,Fog,140,2013-01-11 22:14:00
4:34 PM,41.0,35.6,81,29.44,0.5,SE,11.5,-,N/A,Fog,Fog,140,2013-01-11 22:34:00
4:54 PM,41.0,35.6,81,29.44,0.5,SE,13.8,-,N/A,Fog,Fog,140,2013-01-11 22:54:00
5:14 PM,41.0,35.6,81,29.44,1.0,SE,12.7,-,N/A,,Overcast,140,2013-01-11 23:14:00
5:34 PM,41.0,35.6,81,29.44,1.2,SSE,10.4,-,N/A,,Overcast,150,2013-01-11 23:34:00
5:55 PM,41.0,37.4,87,29.43,2.5,SE,11.5,-,N/A,,Overcast,140,2013-01-11 23:55:00
6:14 PM,41.0,37.4,87,29.43,4.0,SSE,11.5,17.3,N/A,,Overcast,160,2013-01-12 00:14:00
6:34 PM,44.6,41.0,87,29.41,4.0,SSE,13.8,18.4,N/A,,Overcast,150,2013-01-12 00:34:00
6:54 PM,44.6,41.0,87,29.43,4.0,SSE,17.3,21.9,N/A,,Overcast,160,2013-01-12 00:54:00
7:15 PM,44.6,41.0,87,29.43,3.0,SSE,16.1,-,N/A,,Overcast,160,2013-01-12 01:15:00
7:34 PM,44.6,41.0,87,29.43,4.0,SSE,12.7,-,N/A,,Overcast,160,2013-01-12 01:34:00
7:54 PM,41.0,37.4,87,29.41,2.5,SE,9.2,-,N/A,,Overcast,140,2013-01-12 01:54:00
8:14 PM,41.0,37.4,87,29.41,1.2,SE,9.2,-,N/A,,Overcast,140,2013-01-12 02:14:00
8:35 PM,41.0,37.4,87,29.40,2.0,SSE,10.4,-,N/A,,Overcast,150,2013-01-12 02:35:00
8:54 PM,42.8,37.4,81,29.41,5.0,South,12.7,18.4,N/A,,Overcast,170,2013-01-12 02:54:00
9:14 PM,44.6,41.0,87,29.41,7.0,South,16.1,-,N/A,,Overcast,180,2013-01-12 03:14:00
9:35 PM,41.0,37.4,87,29.42,5.0,South,13.8,-,N/A,,Overcast,190,2013-01-12 03:35:00
9:54 PM,41.0,37.4,87,29.42,5.0,SSW,10.4,-,N/A,,Overcast,200,2013-01-12 03:54:00
10:14 PM,41.0,37.4,87,29.42,5.0,SSW,12.7,-,N/A,,Overcast,210,2013-01-12 04:14:00
10:35 PM,41.0,37.4,87,29.43,4.0,SSW,11.5,-,N/A,,Overcast,210,2013-01-12 04:35:00
10:54 PM,41.0,37.4,87,29.43,3.0,SW,12.7,-,N/A,,Overcast,220,2013-01-12 04:54:00
11:14 PM,41.0,37.4,87,29.43,2.5,SW,12.7,-,N/A,,Overcast,220,2013-01-12 05:14:00
11:34 PM,41.0,35.6,81,29.43,2.5,SSW,10.4,-,N/A,,Overcast,210,2013-01-12 05:34:00
11:54 PM,39.2,35.6,87,29.43,2.5,SW,10.4,-,N/A,,Overcast,220,2013-01-12 05:54:00